When you browse on this site, cookies collect data to enhance your experience and personalize the content and advertising you see.
Visit our Privacy Policy to learn more. By continuing to use the site, you agree to this use of cookies and data.
  • In Netherlands
  • List of Countries
  • For 7 days
  • Water Temperature
  • Weather Map
  • Weather Widgets
  • user-avatar
    Login

    Hourly Weather Pleven

    Today, 18 August, Sunday

    Time Temperature Precipitation Wind Pressure Humidity
    00:00 +20°C° 0 mm 2 mps 746 mmHg 50%
    01:00 +19°C° 0 mm 2 mps 746 mmHg 51%
    02:00 +19°C° 0 mm 2 mps 746 mmHg 53%
    03:00 +19°C° 0 mm 2 mps 746 mmHg 55%
    04:00 +18°C° 0 mm 2 mps 746 mmHg 57%
    05:00 +18°C° 0 mm 2 mps 746 mmHg 58%
    06:00 +20°C° 0 mm 2 mps 746 mmHg 55%
    07:00 +21°C° 0 mm 2 mps 746 mmHg 51%
    08:00 +24°C° 0 mm 2 mps 746 mmHg 48%
    09:00 +26°C° 0 mm 2 mps 746 mmHg 43%
    10:00 +28°C° 0 mm 3 mps 746 mmHg 38%
    11:00 +29°C° 0 mm 3 mps 746 mmHg 33%
    12:00 +30°C° 0 mm 3 mps 746 mmHg 31%
    13:00 +31°C° 0 mm 2 mps 746 mmHg 29%
    14:00 +32°C° 0 mm 2 mps 746 mmHg 26%
    15:00 +32°C° 0 mm 2 mps 745 mmHg 26%
    16:00 +32°C° 0 mm 2 mps 745 mmHg 25%
    17:00 +32°C° 0 mm 2 mps 745 mmHg 24%
    18:00 +30°C° 0 mm 2 mps 745 mmHg 29%
    19:00 +27°C° 0 mm 2 mps 745 mmHg 34%
    20:00 +25°C° 0 mm 1 mps 746 mmHg 39%
    21:00 +24°C° 0 mm 2 mps 746 mmHg 40%
    22:00 +23°C° 0 mm 2 mps 746 mmHg 42%
    23:00 +21°C° 0 mm 2 mps 746 mmHg 44%

    Tomorrow, 19 August, Monday

    Time Temperature Precipitation Wind Pressure Humidity
    00:00 +21°C° 0 mm 2 mps 746 mmHg 45%
    01:00 +22°C° 0 mm 1 mps 746 mmHg 46%
    02:00 +21°C° 0 mm 1 mps 746 mmHg 47%
    03:00 +21°C° 0 mm 1 mps 746 mmHg 48%
    04:00 +21°C° 0 mm 1 mps 746 mmHg 49%
    05:00 +20°C° 0 mm 1 mps 747 mmHg 50%
    06:00 +22°C° 0 mm 1 mps 747 mmHg 46%
    07:00 +22°C° 0 mm 0 mps 747 mmHg 43%
    08:00 +24°C° 0 mm 0 mps 747 mmHg 39%
    09:00 +28°C° 0 mm 1 mps 747 mmHg 35%
    10:00 +30°C° 0 mm 2 mps 747 mmHg 31%
    11:00 +32°C° 0 mm 2 mps 747 mmHg 27%
    12:00 +33°C° 0 mm 3 mps 747 mmHg 25%
    13:00 +34°C° 0 mm 3 mps 747 mmHg 24%
    14:00 +35°C° 0 mm 3 mps 747 mmHg 23%
    15:00 +35°C° 0 mm 3 mps 746 mmHg 24%
    16:00 +35°C° 0 mm 3 mps 746 mmHg 25%
    17:00 +34°C° 0 mm 3 mps 746 mmHg 26%
    18:00 +31°C° 0 mm 3 mps 746 mmHg 30%
    19:00 +28°C° 0 mm 2 mps 746 mmHg 35%
    20:00 +26°C° 0 mm 1 mps 747 mmHg 40%
    21:00 +25°C° 0 mm 1 mps 747 mmHg 41%
    22:00 +24°C° 0 mm 1 mps 747 mmHg 41%
    23:00 +24°C° 0 mm 1 mps 747 mmHg 42%

    Day after tomorrow, 20 August, Tuesday

    Time Temperature Precipitation Wind Pressure Humidity
    00:00 +23°C° 0 mm 1 mps 747 mmHg 44%
    01:00 +23°C° 0 mm 1 mps 748 mmHg 45%
    02:00 +22°C° 0 mm 1 mps 748 mmHg 46%
    03:00 +22°C° 0 mm 1 mps 748 mmHg 48%
    04:00 +21°C° 0 mm 1 mps 748 mmHg 49%
    05:00 +21°C° 0 mm 1 mps 748 mmHg 51%
    06:00 +23°C° 0 mm 1 mps 748 mmHg 47%
    07:00 +23°C° 0 mm 0 mps 748 mmHg 43%
    08:00 +25°C° 0 mm 0 mps 749 mmHg 39%
    09:00 +29°C° 0 mm 1 mps 749 mmHg 35%
    10:00 +31°C° 0 mm 1 mps 749 mmHg 31%
    11:00 +33°C° 0 mm 1 mps 749 mmHg 27%
    12:00 +35°C° 0 mm 2 mps 748 mmHg 26%
    13:00 +35°C° 0 mm 2 mps 748 mmHg 25%
    14:00 +36°C° 0 mm 3 mps 748 mmHg 24%
    15:00 +36°C° 0 mm 3 mps 748 mmHg 24%
    16:00 +36°C° 0 mm 3 mps 747 mmHg 25%
    17:00 +36°C° 0 mm 3 mps 747 mmHg 25%
    18:00 +33°C° 0 mm 3 mps 747 mmHg 29%
    19:00 +30°C° 0 mm 3 mps 748 mmHg 34%
    20:00 +27°C° 0 mm 2 mps 748 mmHg 38%
    21:00 +26°C° 0 mm 2 mps 748 mmHg 40%
    22:00 +25°C° 0 mm 2 mps 749 mmHg 41%
    23:00 +24°C° 0 mm 2 mps 749 mmHg 43%

    21 August, Wednesday

    Time Temperature Precipitation Wind Pressure Humidity
    00:00 +24°C° 0 mm 1 mps 749 mmHg 44%
    01:00 +23°C° 0 mm 1 mps 749 mmHg 44%
    02:00 +23°C° 0 mm 1 mps 748 mmHg 45%
    03:00 +22°C° 0 mm 1 mps 748 mmHg 45%
    04:00 +22°C° 0 mm 1 mps 748 mmHg 46%
    05:00 +21°C° 0 mm 1 mps 748 mmHg 47%
    06:00 +23°C° 0 mm 1 mps 749 mmHg 43%
    07:00 +25°C° 0 mm 1 mps 749 mmHg 39%
    08:00 +27°C° 0 mm 1 mps 749 mmHg 36%
    09:00 +29°C° 0 mm 1 mps 749 mmHg 35%
    10:00 +31°C° 0 mm 2 mps 749 mmHg 33%
    11:00 +33°C° 0 mm 3 mps 749 mmHg 32%
    12:00 +34°C° 0 mm 3 mps 748 mmHg 30%
    13:00 +35°C° 0 mm 3 mps 747 mmHg 28%
    14:00 +36°C° 0 mm 3 mps 747 mmHg 26%
    15:00 +36°C° 0 mm 3 mps 747 mmHg 26%
    16:00 +36°C° 0 mm 3 mps 746 mmHg 26%
    17:00 +36°C° 0 mm 2 mps 746 mmHg 27%
    18:00 +32°C° 0 mm 2 mps 746 mmHg 32%
    19:00 +30°C° 0 mm 1 mps 746 mmHg 37%
    20:00 +27°C° 0 mm 1 mps 746 mmHg 42%
    21:00 +26°C° 0 mm 1 mps 747 mmHg 44%
    22:00 +26°C° 0 mm 1 mps 747 mmHg 46%
    23:00 +25°C° 0 mm 1 mps 747 mmHg 48%

    22 August, Thursday

    Time Temperature Precipitation Wind Pressure Humidity
    00:00 +24°C° 0 mm 1 mps 747 mmHg 49%
    01:00 +24°C° 0 mm 1 mps 747 mmHg 49%
    02:00 +23°C° 0 mm 1 mps 747 mmHg 50%
    03:00 +23°C° 0 mm 1 mps 747 mmHg 51%
    04:00 +23°C° 0 mm 1 mps 747 mmHg 52%
    05:00 +22°C° 0 mm 1 mps 747 mmHg 53%
    06:00 +24°C° 0 mm 1 mps 747 mmHg 48%
    07:00 +26°C° 0 mm 1 mps 747 mmHg 43%
    08:00 +28°C° 0 mm 1 mps 747 mmHg 39%
    09:00 +30°C° 0 mm 1 mps 747 mmHg 35%
    10:00 +32°C° 0 mm 1 mps 747 mmHg 30%
    11:00 +36°C° 0 mm 2 mps 747 mmHg 26%
    12:00 +36°C° 0 mm 2 mps 747 mmHg 24%
    13:00 +37°C° 0 mm 3 mps 746 mmHg 22%
    14:00 +38°C° 0 mm 3 mps 746 mmHg 20%
    15:00 +38°C° 0 mm 3 mps 746 mmHg 20%
    16:00 +38°C° 0 mm 4 mps 746 mmHg 20%
    17:00 +38°C° 0 mm 4 mps 745 mmHg 20%
    18:00 +35°C° 0 mm 3 mps 746 mmHg 25%
    19:00 +31°C° 0 mm 3 mps 746 mmHg 29%
    20:00 +29°C° 0 mm 3 mps 746 mmHg 34%
    21:00 +27°C° 0 mm 2 mps 747 mmHg 37%
    22:00 +26°C° 0 mm 2 mps 747 mmHg 41%
    23:00 +25°C° 0 mm 2 mps 747 mmHg 44%

    23 August, Friday

    Time Temperature Precipitation Wind Pressure Humidity
    00:00 +25°C° 0 mm 2 mps 747 mmHg 48%
    01:00 +24°C° 0 mm 2 mps 747 mmHg 51%
    02:00 +24°C° 0 mm 2 mps 747 mmHg 54%
    03:00 +23°C° 0 mm 2 mps 747 mmHg 59%
    04:00 +23°C° 0 mm 2 mps 747 mmHg 63%
    05:00 +21°C° 0 mm 2 mps 747 mmHg 67%
    06:00 +22°C° 0 mm 3 mps 747 mmHg 63%
    07:00 +25°C° 0 mm 3 mps 748 mmHg 59%
    08:00 +26°C° 0 mm 3 mps 748 mmHg 56%
    09:00 +28°C° 0 mm 3 mps 748 mmHg 50%
    10:00 +30°C° 0 mm 4 mps 748 mmHg 45%
    11:00 +33°C° 0 mm 4 mps 748 mmHg 39%
    12:00 +34°C° 0 mm 4 mps 747 mmHg 36%
    13:00 +35°C° 0 mm 4 mps 747 mmHg 33%
    14:00 +36°C° 0 mm 4 mps 747 mmHg 30%
    15:00 +36°C° 0 mm 4 mps 746 mmHg 29%
    16:00 +36°C° 0 mm 3 mps 746 mmHg 28%
    17:00 +36°C° 0 mm 3 mps 746 mmHg 27%
    18:00 +34°C° 0 mm 3 mps 746 mmHg 33%
    19:00 +30°C° 0 mm 2 mps 746 mmHg 38%
    20:00 +28°C° 0 mm 2 mps 746 mmHg 43%
    21:00 +27°C° 0 mm 2 mps 747 mmHg 45%
    22:00 +26°C° 0 mm 2 mps 747 mmHg 47%
    23:00 +25°C° 0 mm 2 mps 748 mmHg 49%
    Show more